Bryce, UT

3:15 AM MDT on September 25, 2016 (GMT -0600)
Bryce Canyon

Weather History for KBCE - January, 2013

Change the Weather History Date:

Wednesday, January 2, 2013

  Actual Average Record
Temperature  
Mean Temperature 8 °F -  
Max Temperature 27 °F 33 °F 48 °F (1981)
Min Temperature -16 °F 5 °F -19 °F (1979)
Degree Days  
Heating Degree Days 57    
Moisture  
Dew Point -3 °F    
Average Humidity 75    
Maximum Humidity 87    
Minimum Humidity 49    
Precipitation  
Precipitation 0.00 in - - ()
Sea Level Pressure  
Sea Level Pressure 30.44 in    
Wind  
Wind Speed 7 mph (NW)    
Max Wind Speed 15 mph    
Max Gust Speed -    
Visibility 10 miles    
Events      
Averages and records for this station are not official NWS values.
T = Trace of Precipitation, MM = Missing Value Source: NWS Daily Summary

Daily Weather History Graph

Daily Weather History Graph

Search for Another Location

Airport or City:

Trip Planner

Search our weather history database for the weather conditions in past years. The results will help you decide how hot, cold, wet, or windy it might be!

Date:

Astronomy

Jan. 02, 2013 Rise Set
Actual Time 7:44 AM MST 5:21 PM MST
Civil Twilight 7:14 AM MST 5:51 PM MST
Nautical Twilight 6:42 AM MST 6:23 PM MST
Astronomical Twilight 6:10 AM MST 6:55 PM MST
Moon 10:51 PM MST (1/2) 10:33 AM MST (1/2)
Length of Visible Light 10h 36m
Length of Day
9h 37m
Waning Gibbous, 74% of the Moon is Illuminated
Jan 2
Waning Gibbous
Jan 4
Last Quarter
Jan 11
New
Jan 18
First Quarter
Jan 26
Full

Hourly Weather History & Observations

Time (MST) Temp. Windchill Dew Point Humidity Pressure Visibility Wind Dir Wind Speed Gust Speed Precip Events Conditions
12:53 AM -11.0 °F -26.2 °F -15.0 °F 83% 30.45 in 10.0 mi West 6.9 mph - N/A   Clear
1:53 AM -11.9 °F -27.3 °F -16.1 °F 82% 30.46 in 10.0 mi West 6.9 mph - N/A   Clear
2:53 AM -11.0 °F -28.8 °F -16.1 °F 78% 30.47 in 10.0 mi West 9.2 mph - N/A   Clear
3:53 AM -9.9 °F -26.3 °F -13.0 °F 86% 30.43 in 10.0 mi WSW 8.1 mph - N/A   Clear
5:53 AM -8.0 °F -26.1 °F -11.9 °F 83% 30.44 in 10.0 mi West 10.4 mph - N/A   Clear
6:53 AM -8.0 °F -22.5 °F -11.0 °F 86% 30.45 in 10.0 mi West 6.9 mph - N/A   Clear
7:53 AM -9.0 °F -20.4 °F -13.0 °F 83% 30.52 in 10.0 mi West 4.6 mph - N/A   Clear
8:53 AM -2.9 °F -11.2 °F -7.1 °F 82% 30.51 in 10.0 mi NW 3.5 mph - N/A   Clear
9:53 AM 5.0 °F -2.1 °F 1.0 °F 84% 30.51 in 10.0 mi North 3.5 mph - N/A   Clear
10:53 AM 14.0 °F 6.5 °F 5.0 °F 67% 30.45 in 10.0 mi North 4.6 mph - N/A   Clear
11:53 AM 18.0 °F 8.7 °F 7.0 °F 62% 30.41 in 10.0 mi North 6.9 mph - N/A   Clear
12:53 PM 21.0 °F 14.6 °F 8.1 °F 57% 30.38 in 10.0 mi North 4.6 mph - N/A   Clear
1:53 PM 23.0 °F 15.8 °F 10.9 °F 60% 30.34 in 10.0 mi NNE 5.8 mph - N/A   Clear
2:53 PM 27.0 °F 23.0 °F 10.0 °F 49% 30.31 in 10.0 mi North 3.5 mph - N/A   Clear
3:53 PM 24.1 °F 16.0 °F 10.0 °F 55% 30.33 in 10.0 mi NNE 6.9 mph - N/A   Clear
4:53 PM 21.0 °F 7.6 °F 9.0 °F 60% 30.37 in 10.0 mi North 15.0 mph - N/A   Clear
5:53 PM 18.0 °F 9.8 °F 6.1 °F 60% 30.38 in 10.0 mi NNE 5.8 mph - N/A   Clear
6:53 PM 10.9 °F 2.9 °F 3.9 °F 73% 30.42 in 10.0 mi Variable 4.6 mph - N/A   Clear
7:53 PM 3.9 °F -5.3 °F -0.0 °F 84% 30.51 in 10.0 mi West 4.6 mph - N/A   Clear
8:53 PM -0.9 °F -16.4 °F -4.0 °F 87% 30.50 in 10.0 mi West 9.2 mph - N/A   Clear
9:53 PM -6.0 °F -16.9 °F -9.0 °F 87% 30.49 in 10.0 mi WSW 4.6 mph - N/A   Clear
10:53 PM -9.0 °F - -13.0 °F 83% 30.45 in 10.0 mi Calm Calm - N/A   Clear
11:53 PM -16.1 °F -30.6 °F -18.9 °F 87% 30.48 in 10.0 mi West 5.8 mph - N/A   Clear